Location: Hamburg
(53.5500°N, 10.0000°E)
Time: 02:02:45
(UTC+02:00)

A-11 Canister half - All Passes

Search period start: 01 July 2015 00:00
Search period end: 11 July 2015 00:00
Orbit: 1527 x 1682 km, 47.3° (Epoch: 30 June)

Date Brightness Start Highest point End Pass type
(mag) Time Alt. Az. Time Alt. Az. Time Alt. Az.
01 Jul - 14:03:21 10° S 14:09:00 18° SE 14:14:56 10° E daylight
01 Jul - 16:03:26 10° SW 16:12:13 43° SSE 16:20:51 10° E daylight
01 Jul - 18:07:00 10° WSW 18:16:16 60° S 18:25:21 10° E daylight
01 Jul - 20:11:30 10° W 20:20:26 50° SSW 20:29:15 10° SE daylight
01 Jul - 22:16:41 10° W 22:23:54 25° SW 22:30:54 10° S daylight
02 Jul - 13:42:09 10° SSE 13:47:33 17° SE 13:53:14 10° E daylight
02 Jul - 15:41:59 10° SW 15:50:43 41° SSE 15:59:19 10° E daylight
02 Jul - 17:45:27 10° WSW 17:54:45 60° S 18:03:50 10° E daylight
02 Jul - 19:49:56 10° W 19:58:56 51° SSW 20:07:47 10° SE daylight
02 Jul - 21:55:05 10° W 22:02:26 26° SW 22:09:35 10° S daylight
03 Jul - 13:20:59 10° SSE 13:26:05 16° SE 13:31:31 10° E daylight
03 Jul - 15:20:32 10° SW 15:29:13 40° SSE 15:37:46 10° E daylight
03 Jul - 17:23:55 10° WSW 17:33:14 60° S 17:42:19 10° E daylight
03 Jul - 19:28:24 10° W 19:37:26 52° SSW 19:46:18 10° SE daylight
03 Jul - 21:33:28 10° W 21:40:58 27° SW 21:48:16 10° SSE daylight
04 Jul - 12:59:52 10° SSE 13:04:38 15° SE 13:09:46 10° E daylight
04 Jul - 14:59:04 10° SSW 15:07:44 39° SSE 15:16:14 10° E daylight
04 Jul - 17:02:23 10° WSW 17:11:43 59° S 17:20:49 10° E daylight
04 Jul - 19:06:50 10° W 19:15:56 53° SSW 19:24:50 10° SE daylight
04 Jul - 21:11:53 10° W 21:19:30 29° SW 21:26:56 10° SSE daylight
05 Jul - 12:38:47 10° SSE 12:43:10 14° SE 12:47:59 10° E daylight
05 Jul - 14:37:37 10° SSW 14:46:14 38° SSE 14:54:42 10° E daylight
05 Jul - 16:40:51 10° WSW 16:50:11 59° S 16:59:17 10° E daylight
05 Jul - 18:45:18 10° W 18:54:25 54° SSW 19:03:21 10° ESE daylight
05 Jul - 20:50:17 10° W 20:58:02 30° SW 21:05:35 10° SSE daylight
06 Jul - 12:17:45 10° SSE 12:21:43 14° SE 12:26:09 10° E daylight
06 Jul - 14:16:11 10° SSW 14:24:44 37° SSE 14:33:10 10° E daylight
06 Jul - 16:19:18 10° WSW 16:28:40 58° S 16:37:47 10° E daylight
06 Jul - 18:23:44 10° W 18:32:55 55° SSW 18:41:52 10° ESE daylight
06 Jul - 20:28:41 10° W 20:36:35 31° SW 20:44:14 10° SSE daylight
07 Jul - 11:56:46 10° SSE 12:00:16 13° SE 12:04:16 10° ESE daylight
07 Jul - 13:54:45 10° SSW 14:03:14 36° SSE 14:11:36 10° E daylight
07 Jul - 15:57:46 10° WSW 16:07:08 58° S 16:16:15 10° E daylight
07 Jul - 18:02:11 10° W 18:11:24 56° SSW 18:20:23 10° ESE daylight
07 Jul - 20:07:07 10° W 20:15:06 32° SW 20:22:52 10° SSE daylight
08 Jul - 11:35:54 10° SE 11:38:49 12° SE 11:42:17 10° ESE daylight
08 Jul - 13:33:19 10° SSW 13:41:45 35° SE 13:50:04 10° E daylight
08 Jul - 15:36:15 10° WSW 15:45:37 57° SSE 15:54:45 10° E daylight
08 Jul - 17:40:38 10° W 17:49:53 57° SSW 17:58:54 10° ESE daylight
08 Jul - 19:45:31 10° W 19:53:37 33° SW 20:01:30 10° SSE daylight
08 Jul - 21:55:00 10° WSW 21:56:21 10° SW 21:57:05 10° SW daylight
09 Jul - 11:15:11 10° SE 11:17:21 11° SE 11:20:09 10° ESE daylight
09 Jul - 13:11:53 10° SSW 13:20:15 34° SE 13:28:31 10° E daylight
09 Jul - 15:14:42 10° WSW 15:24:06 57° SSE 15:33:14 10° E daylight
09 Jul - 17:19:04 10° W 17:28:22 57° SSW 17:37:25 10° ESE daylight
09 Jul - 19:23:56 10° W 19:32:09 34° SW 19:40:08 10° SSE daylight
09 Jul - 21:32:19 10° WSW 21:34:55 11° SW 21:36:56 10° SW daylight
10 Jul - 10:54:51 10° SE 10:55:54 10° SE 10:57:38 10° ESE daylight
10 Jul - 12:50:28 10° SSW 12:58:45 33° SE 13:06:57 10° E daylight
10 Jul - 14:53:10 10° WSW 15:02:34 56° SSE 15:11:42 10° E daylight
10 Jul - 16:57:31 10° W 17:06:51 58° S 17:15:56 10° ESE daylight
10 Jul - 19:02:21 10° W 19:10:40 35° SSW 19:18:45 10° SSE daylight
10 Jul - 21:10:08 10° WSW 21:13:29 12° SW 21:16:17 10° SW daylight
